Orangeburg, SC

3:39 AM EST on February 25, 2017 (GMT -0500)
Orangeburg Municipal

Weather History for KOGB - May, 2013

Change the Weather History Date:

Sunday, May 5, 2013

  Actual Average Record
Temperature  
Mean Temperature 63 °F 68 °F  
Max Temperature 67 °F 81 °F 94 °F (2012)
Min Temperature 58 °F 56 °F 41 °F (1957)
Degree Days  
Heating Degree Days 2 1  
Month to date heating degree days 11 5  
Since 1 July heating degree days 2167 2322  
Cooling Degree Days 0 4  
Month to date cooling degree days 3 20  
Year to date cooling degree days 93 105  
Growing Degree Days 12 (Base 50)    
Moisture  
Dew Point 61 °F    
Average Humidity 92    
Maximum Humidity 93    
Minimum Humidity 87    
Precipitation  
Precipitation 1.24 in 0.08 in 1.24 in (2013)
Month to date precipitation 1.37 0.39  
Year to date precipitation 16.17 14.79  
Sea Level Pressure  
Sea Level Pressure 29.83 in    
Wind  
Wind Speed 10 mph (ESE)    
Max Wind Speed 20 mph    
Max Gust Speed 29 mph    
Visibility 7 miles    
Events Rain    
T = Trace of Precipitation, MM = Missing Value Source: NWS Daily Summary

Daily Weather History Graph

Daily Weather History Graph

Search for Another Location

Airport or City:

Trip Planner

Search our weather history database for the weather conditions in past years. The results will help you decide how hot, cold, wet, or windy it might be!

Date:

Astronomy

May. 05, 2013 Rise Set
Actual Time 6:31 AM EDT 8:09 PM EDT
Civil Twilight 6:04 AM EDT 8:36 PM EDT
Nautical Twilight 5:32 AM EDT 9:08 PM EDT
Astronomical Twilight 4:58 AM EDT 9:42 PM EDT
Moon 3:48 AM EDT (5/5) 4:18 PM EDT (5/5)
Length of Visible Light 14h 32m
Length of Day
13h 38m
Waning Crescent, 18% of the Moon is Illuminated
May 5
Waning Crescent
May 9
New
May 18
First Quarter
May 25
Full
May 31
Last Quarter

Hourly Weather History & Observations

Time (EDT) Temp. Dew Point Humidity Pressure Visibility Wind Dir Wind Speed Gust Speed Precip Events Conditions
12:25 AM 60.8 °F 55.4 °F 82% 29.92 in 10.0 mi ENE 9.2 mph 17.3 mph N/A Rain Light Rain
12:53 AM 60.1 °F 55.9 °F 86% 29.91 in 10.0 mi East 10.4 mph 17.3 mph N/A Rain Light Rain
1:53 AM 60.1 °F 55.9 °F 86% 29.88 in 10.0 mi East 10.4 mph 17.3 mph N/A   Overcast
2:53 AM 59.0 °F 57.0 °F 93% 29.86 in 10.0 mi East 11.5 mph 18.4 mph N/A   Overcast
3:53 AM 59.0 °F 57.0 °F 93% 29.85 in 6.0 mi East 9.2 mph - N/A Rain Light Rain
4:53 AM 59.0 °F 55.9 °F 90% 29.85 in 9.0 mi ENE 10.4 mph 19.6 mph N/A Rain Light Rain
5:12 AM 57.2 °F 55.4 °F 94% 29.84 in 8.0 mi East 10.4 mph 21.9 mph N/A Rain Light Rain
5:38 AM 57.2 °F 55.4 °F 94% 29.84 in 10.0 mi ENE 12.7 mph 20.7 mph N/A   Overcast
5:53 AM 57.9 °F 55.9 °F 93% 29.84 in 10.0 mi East 12.7 mph 20.7 mph N/A   Overcast
6:53 AM 57.9 °F 55.9 °F 93% 29.85 in 8.0 mi East 11.5 mph 19.6 mph N/A Rain Rain
7:53 AM 57.9 °F 55.9 °F 93% 29.86 in 7.0 mi East 11.5 mph 18.4 mph N/A Rain Light Rain
8:53 AM 59.0 °F 57.0 °F 93% 29.83 in 5.0 mi East 16.1 mph 24.2 mph N/A Rain Light Rain
9:53 AM 60.1 °F 57.9 °F 93% 29.82 in 9.0 mi East 17.3 mph 24.2 mph N/A Rain Light Rain
10:53 AM 62.1 °F 59.0 °F 90% 29.83 in 10.0 mi East 9.2 mph - N/A   Overcast
11:13 AM 62.6 °F 60.8 °F 94% 29.84 in 3.0 mi East 10.4 mph 20.7 mph N/A Rain Heavy Rain
11:37 AM 62.6 °F 60.8 °F 94% 29.83 in 4.0 mi East 10.4 mph 20.7 mph N/A Rain Rain
11:46 AM 62.6 °F 60.8 °F 94% 29.84 in 4.0 mi ESE 9.2 mph 19.6 mph N/A Rain Light Rain
11:53 AM 63.0 °F 60.1 °F 90% 29.84 in 3.0 mi ESE 10.4 mph 19.6 mph N/A Rain Rain
11:58 AM 62.6 °F 60.8 °F 94% 29.85 in 1.8 mi ESE 11.5 mph 19.6 mph N/A Rain Heavy Rain
12:07 PM 62.6 °F 60.8 °F 94% 29.84 in 3.0 mi East 10.4 mph 17.3 mph N/A Rain Rain
12:34 PM 62.6 °F 60.8 °F 94% 29.85 in 2.5 mi East 8.1 mph 17.3 mph N/A Rain Heavy Rain
12:41 PM 64.4 °F 62.6 °F 94% 29.84 in 3.0 mi East 10.4 mph 24.2 mph N/A Rain Light Rain
12:53 PM 64.0 °F 62.1 °F 93% 29.84 in 7.0 mi ESE 10.4 mph 18.4 mph N/A Rain Light Rain
2:25 PM 64.4 °F 62.6 °F 94% 29.83 in 2.0 mi East 12.7 mph 19.6 mph N/A Rain Heavy Rain
2:35 PM 64.4 °F 62.6 °F 94% 29.83 in 7.0 mi East 9.2 mph 20.7 mph N/A Rain Light Rain
2:40 PM 64.4 °F 60.8 °F 88% 29.83 in 6.0 mi East 11.5 mph 20.7 mph N/A Rain Light Rain
2:53 PM 64.9 °F 62.1 °F 90% 29.82 in 5.0 mi East 9.2 mph 19.6 mph N/A Rain Light Rain
2:57 PM 64.4 °F 62.6 °F 94% 29.82 in 9.0 mi East 8.1 mph - N/A Rain Light Rain
3:04 PM 64.4 °F 62.6 °F 94% 29.81 in 10.0 mi East 12.7 mph 18.4 mph N/A Rain Light Rain
3:37 PM 64.4 °F 62.6 °F 94% 29.80 in 10.0 mi East 10.4 mph - N/A Rain Light Rain
3:44 PM 66.2 °F 62.6 °F 88% 29.79 in 10.0 mi East 10.4 mph - N/A   Overcast
3:53 PM 66.0 °F 63.0 °F 90% 29.80 in 10.0 mi ESE 10.4 mph 17.3 mph N/A   Overcast
4:27 PM 66.2 °F 62.6 °F 88% 29.78 in 10.0 mi East 9.2 mph - N/A   Overcast
4:53 PM 66.0 °F 62.1 °F 87% 29.80 in 4.0 mi SE 12.7 mph 26.5 mph N/A Rain Light Rain
5:53 PM 66.0 °F 62.1 °F 87% 29.80 in 10.0 mi SSE 15.0 mph 21.9 mph N/A   Overcast
6:53 PM 66.0 °F 62.1 °F 87% 29.79 in 10.0 mi SE 10.4 mph - N/A   Overcast
7:08 PM 66.2 °F 62.6 °F 88% 29.80 in 10.0 mi SE 9.2 mph - N/A   Overcast
7:39 PM 64.4 °F 62.6 °F 94% 29.81 in 9.0 mi South 5.8 mph - N/A Rain Light Rain
7:53 PM 64.9 °F 63.0 °F 93% 29.81 in 6.0 mi SSW 6.9 mph - N/A Rain Light Rain
8:00 PM 64.4 °F 62.6 °F 94% 29.81 in 1.8 mi SE 10.4 mph 16.1 mph N/A Rain Heavy Rain
8:05 PM 64.4 °F 62.6 °F 94% 29.82 in 1.2 mi SSE 10.4 mph - N/A Rain Heavy Rain
8:12 PM 64.4 °F 62.6 °F 94% 29.82 in 1.8 mi South 8.1 mph - N/A Rain Heavy Rain
8:14 PM 64.4 °F 62.6 °F 94% 29.82 in 2.0 mi South 6.9 mph - N/A Rain Heavy Rain
8:23 PM 64.4 °F 62.6 °F 94% 29.82 in 4.0 mi South 4.6 mph - N/A Rain Rain
8:30 PM 64.4 °F 62.6 °F 94% 29.82 in 1.8 mi SSE 4.6 mph - N/A Rain Heavy Rain
8:39 PM 64.4 °F 62.6 °F 94% 29.82 in 2.0 mi ESE 5.8 mph - N/A Rain Heavy Rain
8:53 PM 64.0 °F 62.1 °F 93% 29.82 in 1.8 mi ESE 5.8 mph - N/A Rain Heavy Rain
8:57 PM 64.4 °F 62.6 °F 94% 29.82 in 2.0 mi East 3.5 mph - N/A Rain Rain
9:06 PM 64.4 °F 62.6 °F 94% 29.82 in 7.0 mi ESE 5.8 mph - N/A Rain Light Rain
9:53 PM 64.0 °F 62.1 °F 93% 29.83 in 10.0 mi SE 3.5 mph - N/A   Overcast
10:20 PM 64.4 °F 62.6 °F 94% 29.84 in 10.0 mi ESE 4.6 mph - N/A   Overcast
10:29 PM 64.4 °F 62.6 °F 94% 29.84 in 10.0 mi ESE 8.1 mph - N/A   Overcast
10:53 PM 64.0 °F 63.0 °F 96% 29.85 in 9.0 mi SE 10.4 mph - N/A   Overcast
11:53 PM 64.0 °F 62.1 °F 93% 29.84 in 8.0 mi ESE 5.8 mph - N/A   Overcast